�N����,����,�~����,�C��,���x,�C��,����,���ϕ���,�ő�u�ԕ���,�ő厞����,���˗�,�I�_���x,�n�����x,�ő啗���N��,DTYPE
"20/11/05","00:10",0.0,5.3,90.8,1017.8,298.1,1.6,2.1,321.5,0.00,4.0,12.6,"00:04:40",1
"20/11/05","00:20",0.0,5.4,90.9,1018.0,297.0,1.6,2.5,307.7,0.00,4.1,12.3,"00:13:36",1
"20/11/05","00:30",0.0,5.3,91.2,1018.2,289.2,1.3,1.9,310.7,0.00,4.0,12.3,"00:21:04",1
"20/11/05","00:40",0.0,5.6,91.7,1018.2,296.4,1.6,2.6,309.3,0.00,4.4,12.4,"00:35:38",1
"20/11/05","00:50",0.0,6.4,91.7,1018.2,312.5,2.5,4.5,337.6,0.00,5.2,12.4,"00:45:20",1
"20/11/05","01:00",0.0,6.5,91.7,1018.0,304.4,1.6,2.7,319.1,0.00,5.3,12.5,"00:52:16",1
"20/11/05","01:10",0.0,6.3,91.6,1018.2,303.6,0.8,1.8,321.9,0.00,5.1,12.3,"01:00:32",1
"20/11/05","01:20",0.0,6.0,91.9,1019.0,314.6,0.8,1.4,256.6,0.00,4.8,12.3,"01:14:48",1
"20/11/05","01:30",0.0,5.5,92.0,1018.5,291.0,1.2,2.0,316.4,0.00,4.3,12.1,"01:23:44",1
"20/11/05","01:40",0.0,5.2,92.3,1019.0,319.2,2.0,2.9,322.1,0.00,4.1,12.3,"01:37:12",1
"20/11/05","01:50",0.0,5.0,92.5,1018.7,314.4,1.8,2.6,321.1,0.00,3.9,12.2,"01:44:56",1
"20/11/05","02:00",0.0,4.8,92.7,1019.0,294.4,1.3,1.8,317.0,0.00,3.8,12.0,"01:51:28",1
"20/11/05","02:10",0.0,4.6,92.8,1019.0,299.9,1.5,2.1,309.9,0.00,3.6,12.1,"02:03:48",1
"20/11/05","02:20",0.0,4.6,93.1,1019.0,290.8,1.3,1.7,311.5,0.00,3.6,12.1,"02:17:56",1
"20/11/05","02:30",0.0,4.9,93.2,1018.7,304.9,1.6,2.4,295.6,0.00,3.9,12.0,"02:27:16",1
"20/11/05","02:40",0.0,5.2,93.2,1018.7,334.2,1.5,2.1,342.9,0.00,4.2,12.0,"02:34:00",1
"20/11/05","02:50",0.0,4.7,93.2,1018.7,294.1,0.8,1.3,319.6,0.00,3.7,11.9,"02:40:24",1
"20/11/05","03:00",0.0,4.3,93.5,1018.7,276.1,0.6,1.3,286.2,0.00,3.4,11.9,"02:57:12",1
"20/11/05","03:10",0.0,4.5,93.8,1018.7,307.3,0.8,2.8,332.8,0.00,3.6,11.8,"03:09:36",1
"20/11/05","03:20",0.0,5.3,94.0,1019.2,311.3,2.1,3.6,329.5,0.00,4.5,11.8,"03:11:36",1
"20/11/05","03:30",0.0,5.6,93.9,1018.7,312.4,2.1,3.6,327.8,0.00,4.7,11.9,"03:20:08",1
"20/11/05","03:40",0.0,5.8,93.9,1019.2,320.0,2.3,4.4,338.2,0.00,4.9,11.9,"03:34:16",1
"20/11/05","03:50",0.0,5.9,94.0,1019.0,321.3,2.2,4.0,324.1,0.00,5.0,11.8,"03:40:02",1
"20/11/05","04:00",0.0,5.9,93.9,1019.0,336.6,2.1,5.4,322.2,0.00,5.0,11.8,"03:53:04",1
"20/11/05","04:10",0.0,5.2,94.0,1019.2,288.8,0.6,1.4,313.2,0.00,4.4,11.8,"04:01:28",1
"20/11/05","04:20",0.0,4.7,94.2,1019.4,313.5,1.6,2.6,313.6,0.00,3.9,11.8,"04:16:40",1
"20/11/05","04:30",0.0,4.3,94.4,1019.4,295.7,1.3,1.9,342.2,0.00,3.5,11.8,"04:20:24",1
"20/11/05","04:40",0.0,4.3,94.7,1019.4,313.3,1.3,2.9,327.5,0.00,3.6,11.7,"04:36:38",1
"20/11/05","04:50",0.0,5.4,94.6,1019.4,330.6,2.6,5.0,321.7,0.00,4.6,11.5,"04:40:34",1
"20/11/05","05:00",0.0,5.6,94.5,1019.9,329.2,2.3,3.9,314.9,0.00,4.8,11.6,"04:53:36",1
"20/11/05","05:10",0.0,5.6,94.5,1020.1,323.7,2.2,4.7,343.3,0.00,4.8,11.7,"05:06:20",1
"20/11/05","05:20",0.0,5.2,94.4,1020.1,324.2,1.7,2.9,336.9,0.00,4.4,11.7,"05:11:12",1
"20/11/05","05:30",0.0,4.6,94.5,1019.9,311.0,1.3,1.9,317.6,0.00,3.8,11.7,"05:23:20",1
"20/11/05","05:40",0.0,4.2,94.7,1019.9,301.8,1.5,2.1,318.1,0.00,3.5,11.6,"05:34:28",1
"20/11/05","05:50",0.0,3.8,94.9,1019.7,301.6,1.1,1.7,316.7,0.00,3.1,11.3,"05:44:08",1
"20/11/05","06:00",0.0,3.6,95.0,1019.9,285.7,1.3,1.8,272.7,0.00,2.9,11.3,"05:53:20",1
"20/11/05","06:10",0.0,3.4,95.1,1019.9,307.5,1.6,2.0,315.2,0.00,2.7,11.2,"06:05:58",1
"20/11/05","06:20",0.0,3.6,95.3,1019.9,291.3,1.7,1.8,291.4,0.00,3.0,11.2,"06:13:42",1
"20/11/05","06:30",0.0,3.9,95.2,1020.1,282.6,1.7,1.8,282.8,0.00,3.2,11.5,"06:21:38",1
"20/11/05","06:40",0.0,4.0,95.1,1019.7,289.2,1.6,1.8,288.4,0.00,3.3,11.3,"06:34:56",1
"20/11/05","06:50",0.0,3.8,95.2,1020.1,292.6,1.3,1.7,281.0,0.00,3.1,11.2,"06:48:46",1
"20/11/05","07:00",0.0,3.9,95.4,1020.4,297.5,1.7,2.1,315.4,0.00,3.3,11.3,"06:51:16",1
"20/11/05","07:10",0.0,4.6,95.4,1020.6,293.5,0.8,2.0,312.0,0.00,4.0,11.3,"07:04:16",1
"20/11/05","07:20",0.0,5.2,95.4,1021.1,320.1,0.7,1.3,323.7,0.01,4.6,11.3,"07:15:20",1
"20/11/05","07:30",0.0,6.0,95.3,1021.5,305.8,0.5,1.6,307.1,0.02,5.3,11.1,"07:29:42",1
"20/11/05","07:40",0.0,6.7,95.2,1021.5,296.3,0.8,1.3,317.8,0.03,6.0,11.3,"07:30:28",1
"20/11/05","07:50",0.0,7.5,95.1,1021.8,294.6,0.8,1.3,300.0,0.05,6.8,11.3,"07:43:48",1
"20/11/05","08:00",0.0,8.2,94.9,1022.5,300.9,0.6,1.6,323.0,0.06,7.5,11.6,"07:56:24",1
"20/11/05","08:10",0.0,8.7,94.8,1022.5,317.9,1.0,1.9,333.6,0.09,8.0,11.6,"08:01:20",1
"20/11/05","08:20",0.0,9.1,93.9,1022.7,280.9,0.6,1.1,345.6,0.12,8.2,11.7,"08:11:04",1
"20/11/05","08:30",0.0,9.1,94.0,1023.2,257.4,0.7,1.6,242.7,0.13,8.2,11.7,"08:28:24",1
"20/11/05","08:40",0.0,9.6,92.5,1023.4,269.6,1.0,1.3,255.9,0.17,8.5,11.8,"08:30:02",1
"20/11/05","08:50",0.0,10.0,92.2,1023.9,261.3,0.6,1.3,260.4,0.19,8.8,12.2,"08:40:08",1
"20/11/05","09:00",0.0,10.2,91.7,1023.9,265.1,0.6,1.3,286.1,0.17,9.0,12.2,"08:58:32",1
"20/11/05","09:10",0.0,10.5,89.1,1023.7,246.2,0.7,1.6,240.5,0.23,8.8,12.4,"09:09:12",1
"20/11/05","09:20",0.0,10.5,86.7,1024.1,241.4,1.0,2.1,237.7,0.24,8.4,12.5,"09:18:56",1
"20/11/05","09:30",0.0,11.2,84.5,1024.4,227.5,0.8,1.6,116.9,0.26,8.7,12.7,"09:25:52",1
"20/11/05","09:40",0.0,11.6,81.4,1024.4,182.2,0.7,1.3,169.9,0.27,8.6,12.7,"09:37:36",1
"20/11/05","09:50",0.0,12.1,77.9,1024.1,241.8,0.7,1.6,208.2,0.30,8.4,12.9,"09:45:52",1
"20/11/05","10:00",0.0,12.4,74.2,1024.6,198.6,0.6,1.9,108.2,0.32,8.0,13.1,"09:55:28",1
"20/11/05","10:10",0.0,12.9,72.0,1024.1,213.3,1.3,2.7,122.1,0.36,8.0,13.3,"10:09:20",1
"20/11/05","10:20",0.0,13.2,70.4,1023.9,218.1,0.8,2.1,213.4,0.38,8.0,13.6,"10:18:48",1
"20/11/05","10:30",0.0,13.7,69.3,1023.9,157.7,1.0,2.5,104.1,0.40,8.2,13.8,"10:24:16",1
"20/11/05","10:40",0.0,13.8,68.2,1023.7,128.0,1.0,1.8,119.9,0.40,8.1,14.0,"10:39:04",1
"20/11/05","10:50",0.0,14.6,67.6,1023.4,229.3,0.7,2.8,236.8,0.42,8.7,14.2,"10:49:44",1
"20/11/05","11:00",0.0,15.1,65.8,1023.7,269.4,1.0,2.7,234.5,0.43,8.8,14.3,"10:50:16",1
"20/11/05","11:10",0.0,15.5,65.2,1023.4,261.7,1.1,2.4,236.1,0.46,9.0,14.6,"11:05:20",1
"20/11/05","11:20",0.0,15.8,63.1,1023.0,242.8,1.0,2.5,197.2,0.40,8.8,14.7,"11:10:02",1
"20/11/05","11:30",0.0,15.4,63.1,1023.0,229.2,1.3,2.8,233.5,0.37,8.5,15.1,"11:27:44",1
"20/11/05","11:40",0.0,15.9,62.0,1022.7,245.7,1.1,2.5,220.1,0.46,8.7,15.0,"11:32:40",1
"20/11/05","11:50",0.0,16.0,61.0,1022.5,235.7,1.2,2.6,227.7,0.37,8.5,15.3,"11:43:44",1
"20/11/05","12:00",0.0,16.6,60.4,1022.3,299.4,0.7,1.4,243.0,0.40,8.9,15.5,"11:50:08",1
"20/11/05","12:10",0.0,16.6,57.7,1022.3,219.7,1.1,3.5,218.1,0.44,8.3,15.4,"12:08:32",1
"20/11/05","12:20",0.0,17.4,57.0,1021.8,288.8,0.7,1.8,337.3,0.46,8.8,15.8,"12:16:00",1
"20/11/05","12:30",0.0,17.8,54.9,1021.8,184.3,0.8,2.0,146.7,0.45,8.7,16.1,"12:27:12",1
"20/11/05","12:40",0.0,17.5,53.2,1021.5,243.9,1.2,2.8,220.2,0.42,7.9,16.2,"12:34:56",1
"20/11/05","12:50",0.0,17.8,51.8,1021.5,248.7,1.2,4.3,222.7,0.44,7.8,16.3,"12:48:16",1
"20/11/05","13:00",0.0,18.3,49.5,1021.3,242.8,1.3,3.3,230.4,0.42,7.6,16.4,"12:59:36",1
"20/11/05","13:10",0.0,17.8,48.7,1021.5,250.4,1.7,4.9,234.4,0.32,6.9,16.4,"13:05:36",1
"20/11/05","13:20",0.0,18.0,49.4,1021.5,250.7,1.7,3.5,345.6,0.41,7.3,16.7,"13:14:32",1
"20/11/05","13:30",0.0,18.3,48.6,1021.3,256.8,1.6,3.4,198.1,0.37,7.3,16.7,"13:28:08",1
"20/11/05","13:40",0.0,18.1,48.1,1021.1,290.2,1.5,3.6,314.5,0.30,7.0,16.7,"13:32:00",1
"20/11/05","13:50",0.0,18.4,47.5,1021.1,290.0,1.5,3.3,236.3,0.36,7.1,16.9,"13:48:08",1
"20/11/05","14:00",0.0,18.1,47.1,1021.1,279.4,2.0,4.5,236.5,0.33,6.7,16.8,"13:50:40",1
"20/11/05","14:10",0.0,18.0,47.4,1020.8,288.3,1.6,3.3,333.6,0.25,6.7,16.9,"14:00:32",1
"20/11/05","14:20",0.0,17.7,48.6,1020.8,264.2,1.5,3.2,236.9,0.18,6.8,16.8,"14:17:36",1
"20/11/05","14:30",0.0,17.3,49.3,1021.1,274.3,1.3,2.8,228.6,0.11,6.6,16.7,"14:21:28",1
"20/11/05","14:40",0.0,16.9,50.2,1020.6,251.5,1.7,3.1,235.9,0.11,6.5,16.7,"14:37:04",1
"20/11/05","14:50",0.0,16.8,52.1,1021.1,287.2,1.2,2.6,313.2,0.09,7.0,16.7,"14:44:16",1
"20/11/05","15:00",0.0,16.8,53.1,1021.1,281.7,1.1,2.7,237.7,0.10,7.2,16.7,"14:52:16",1
"20/11/05","15:10",0.0,16.8,54.2,1021.1,334.1,1.6,3.4,331.4,0.08,7.5,16.4,"15:03:28",1
"20/11/05","15:20",0.0,16.5,55.0,1021.3,330.7,1.5,2.1,338.1,0.08,7.5,16.6,"15:12:24",1
"20/11/05","15:30",0.0,17.0,55.2,1021.1,301.6,1.2,2.4,330.5,0.13,8.0,16.5,"15:20:08",1
"20/11/05","15:40",0.0,17.4,53.0,1021.1,295.9,1.2,2.1,331.0,0.13,7.8,16.5,"15:39:44",1
"20/11/05","15:50",0.0,17.4,51.6,1020.8,324.2,1.8,3.4,331.3,0.11,7.4,16.6,"15:41:12",1
"20/11/05","16:00",0.0,17.1,53.6,1021.1,300.9,1.6,2.7,326.7,0.07,7.7,16.5,"15:51:44",1
"20/11/05","16:10",0.0,16.6,53.6,1021.5,313.0,1.7,3.3,331.8,0.05,7.2,16.3,"16:04:24",1
"20/11/05","16:20",0.0,16.2,55.1,1021.1,300.1,1.3,2.4,337.2,0.03,7.2,16.1,"16:12:32",1
"20/11/05","16:30",0.0,15.7,58.1,1020.6,308.0,1.3,2.2,306.3,0.01,7.5,16.1,"16:25:28",1
"20/11/05","16:40",0.0,14.8,61.6,1020.8,295.7,1.2,1.9,340.1,0.00,7.5,16.2,"16:30:48",1
"20/11/05","16:50",0.0,13.9,64.4,1021.1,301.9,1.2,3.1,306.3,0.00,7.3,15.9,"16:48:54",1
"20/11/05","17:00",0.0,13.4,66.5,1020.8,312.5,2.0,3.7,305.1,0.00,7.3,15.8,"16:51:06",1
"20/11/05","17:10",0.0,13.2,67.8,1021.1,311.9,2.1,3.1,322.6,0.00,7.4,15.8,"17:02:08",1
"20/11/05","17:20",0.0,12.6,69.0,1020.8,281.9,1.3,2.0,301.3,0.00,7.1,15.6,"17:19:22",1
"20/11/05","17:30",0.0,12.1,69.9,1021.1,284.9,1.1,1.4,286.7,0.00,6.8,15.3,"17:22:18",1
"20/11/05","17:40",0.0,11.8,71.1,1021.3,276.4,1.5,2.2,294.7,0.00,6.8,15.2,"17:35:22",1
"20/11/05","17:50",0.0,11.6,72.2,1021.5,312.3,1.7,4.1,351.2,0.00,6.8,15.2,"17:49:42",1
"20/11/05","18:00",0.0,11.5,73.2,1021.5,304.1,2.1,3.2,312.3,0.00,6.9,14.9,"17:52:00",1
"20/11/05","18:10",0.0,11.4,74.2,1021.5,294.6,1.8,3.3,323.6,0.00,7.0,15.0,"18:01:12",1
"20/11/05","18:20",0.0,11.2,75.1,1021.8,289.4,1.7,3.4,306.7,0.00,7.0,14.7,"18:12:28",1
"20/11/05","18:30",0.0,11.0,76.3,1022.0,300.4,1.7,3.6,316.0,0.00,7.0,14.8,"18:28:10",1
"20/11/05","18:40",0.0,10.8,77.2,1022.0,322.4,1.1,2.2,306.7,0.00,7.0,14.7,"18:30:32",1
"20/11/05","18:50",0.0,10.2,78.4,1022.3,323.6,1.2,2.1,327.3,0.00,6.7,14.5,"18:48:48",1
"20/11/05","19:00",0.0,9.8,79.9,1022.3,309.4,1.6,2.4,335.7,0.00,6.5,14.5,"18:54:08",1
"20/11/05","19:10",0.0,9.6,81.0,1021.8,308.7,1.6,2.5,317.5,0.00,6.5,14.3,"19:08:24",1
"20/11/05","19:20",0.0,9.6,81.9,1021.8,301.9,1.5,2.8,323.2,0.00,6.7,14.4,"19:10:08",1
"20/11/05","19:30",0.0,9.3,82.8,1022.5,297.4,1.7,2.1,328.8,0.00,6.6,14.2,"19:22:00",1
"20/11/05","19:40",0.0,9.1,83.5,1022.0,284.5,1.5,1.8,310.9,0.00,6.5,14.1,"19:36:40",1
"20/11/05","19:50",0.0,9.1,84.1,1022.5,293.9,1.6,2.2,313.9,0.00,6.6,14.0,"19:45:44",1
"20/11/05","20:00",0.0,8.9,84.4,1022.5,301.0,1.6,2.1,302.4,0.00,6.5,13.9,"19:50:16",1
"20/11/05","20:10",0.0,8.6,85.0,1022.3,284.2,1.5,2.4,290.7,0.00,6.3,13.8,"20:05:12",1
"20/11/05","20:20",0.0,8.9,85.4,1022.3,279.8,1.6,2.4,266.3,0.00,6.6,13.8,"20:13:04",1
"20/11/05","20:30",0.0,8.7,85.6,1022.3,318.7,1.8,2.6,319.7,0.00,6.5,13.7,"20:28:16",1
"20/11/05","20:40",0.0,7.8,85.9,1022.3,307.2,1.8,2.6,323.0,0.00,5.6,13.6,"20:30:16",1
"20/11/05","20:50",0.0,7.7,86.8,1022.5,297.1,2.0,2.5,316.2,0.00,5.7,13.6,"20:43:12",1
"20/11/05","21:00",0.0,7.9,87.3,1022.0,282.7,1.7,2.0,272.2,0.00,6.0,13.5,"20:59:28",1
"20/11/05","21:10",0.0,8.0,87.6,1022.3,293.0,1.7,2.1,296.7,0.00,6.1,13.5,"21:00:08",1
"20/11/05","21:20",0.0,7.9,88.0,1022.3,299.3,1.7,2.2,315.6,0.00,6.1,13.3,"21:19:28",1
"20/11/05","21:30",0.0,7.8,88.4,1022.5,286.7,1.6,2.5,318.8,0.00,6.0,13.2,"21:20:08",1
"20/11/05","21:40",0.0,8.0,88.8,1022.3,305.8,1.5,2.4,317.3,0.00,6.3,13.3,"21:31:52",1
"20/11/05","21:50",0.0,7.9,89.0,1022.5,309.4,1.7,2.8,316.8,0.00,6.2,13.2,"21:46:32",1
"20/11/05","22:00",0.0,7.9,89.5,1022.3,284.8,1.3,2.2,277.1,0.00,6.3,13.2,"21:58:48",1
"20/11/05","22:10",0.0,8.5,89.7,1022.3,277.1,1.6,3.4,315.6,0.00,6.9,13.3,"22:07:20",1
"20/11/05","22:20",0.0,8.8,89.8,1022.3,296.4,1.5,2.2,319.9,0.00,7.3,13.2,"22:13:52",1
"20/11/05","22:30",0.0,9.1,89.8,1022.5,311.1,1.6,2.9,302.4,0.00,7.6,13.1,"22:20:56",1
"20/11/05","22:40",0.0,8.9,89.8,1022.5,293.8,1.0,1.8,297.7,0.00,7.4,13.2,"22:36:16",1
"20/11/05","22:50",0.0,8.8,90.0,1022.7,316.9,1.6,2.2,313.8,0.00,7.3,13.2,"22:45:12",1
"20/11/05","23:00",0.0,8.6,90.1,1023.0,301.4,1.3,2.1,330.6,0.00,7.1,13.0,"22:50:24",1
"20/11/05","23:10",0.0,8.8,90.4,1022.7,291.8,1.7,2.4,320.8,0.00,7.4,13.1,"23:03:44",1
"20/11/05","23:20",0.0,9.0,90.4,1023.0,307.3,1.8,2.6,304.8,0.00,7.6,13.3,"23:18:08",1
"20/11/05","23:30",0.0,9.1,90.4,1023.0,308.5,1.6,2.2,308.3,0.00,7.7,13.0,"23:22:40",1
"20/11/05","23:40",0.0,9.3,90.3,1022.7,312.1,1.5,2.5,328.5,0.00,7.8,13.0,"23:30:32",1
"20/11/05","23:50",0.0,9.2,90.3,1023.0,296.5,1.5,2.7,326.3,0.00,7.7,13.1,"23:41:28",1
"20/11/05","24:00",0.0,9.2,90.2,1022.7,306.4,1.6,2.2,315.8,0.00,7.7,13.1,"23:57:28",1
